Location: Bourn
(52.1833°N, 0.0500°W)
Time: 13:50:41
(UTC+00:00)

Daily predictions for brighter satellites

Satellite Brightness Start Highest point End
(mag) Time Altitude Azimuth Time Altitude Azimuth Time Altitude Azimuth
STARLINK-1270 3.0 19:11:47 10° W 19:14:55 74° N 19:18:03 10° E
STARLINK-1154 3.0 19:12:14 10° W 19:15:21 74° N 19:18:29 10° E
STARLINK-1237 3.7 19:11:58 10° W 19:16:07 81° N 19:20:18 10° E
STARLINK-1197 3.0 19:13:08 10° W 19:16:15 74° N 19:19:23 10° E
STARLINK-1189 3.0 19:13:36 10° W 19:16:43 74° N 19:19:51 10° E
STARLINK-1198 3.0 19:14:02 10° W 19:17:10 74° N 19:20:17 10° E
STARLINK-1209 2.8 19:14:21 10° W 19:17:21 77° N 19:20:19 10° E
STARLINK-1188 3.0 19:14:29 10° W 19:17:37 74° N 19:20:44 10° E
IRIDIUM 104 4.4 19:12:36 10° N 19:17:48 61° E 19:22:58 10° SSE
STARLINK-1235 3.0 19:15:09 10° W 19:18:18 77° N 19:21:28 10° E
STARLINK-1187 3.0 19:15:33 10° W 19:18:43 76° N 19:21:53 10° E
STARLINK-1199 3.0 19:16:26 10° W 19:19:35 75° N 19:22:44 10° E
Cosmos 1603 3.9 19:14:32 10° S 19:19:55 48° ESE 19:25:18 10° NE
STARLINK-1191 3.0 19:16:53 10° W 19:20:02 75° N 19:23:12 10° E
STARLINK-1210 3.0 19:17:20 10° W 19:20:29 75° N 19:23:39 10° E
STARLINK-1221 3.0 19:17:47 10° W 19:20:56 75° N 19:24:05 10° E
STARLINK-1202 3.7 19:16:57 10° W 19:21:06 80° N 19:25:16 10° E
FREGAT/IRIS 2.2 19:18:28 10° SSE 19:21:10 77° ENE 19:23:55 10° N
Cosmos 1602 Rocket 4.0 19:16:52 10° NNW 19:21:19 69° W 19:25:41 10° S
STARLINK-1219 3.0 19:18:13 10° W 19:21:23 75° N 19:24:32 10° E
STARLINK-1222 3.0 19:18:41 10° W 19:21:50 75° N 19:25:00 10° E
STARLINK-1211 3.0 19:19:09 10° W 19:22:18 75° N 19:25:27 10° E
ATLAS 2AS CENTAUR R/B 3.0 19:14:34 10° NW 19:22:22 74° NE 19:29:32 10° SE
Cosmos 2237 Rocket 4.2 19:17:42 10° WSW 19:22:42 32° NW 19:27:45 10° NNE
STARLINK-1214 3.0 19:19:36 10° W 19:22:44 75° N 19:25:53 10° E
Ariane Rocket 3.2 19:18:05 10° SSE 19:23:10 80° WSW 19:28:16 10° NNW
STARLINK-1245 3.0 19:20:05 10° W 19:23:12 75° N 19:26:20 10° E
Cosmos 1758 3.5 19:19:18 10° SSW 19:23:23 80° W 19:27:30 10° N
STARLINK-1238 3.0 19:20:30 10° W 19:23:38 75° N 19:26:48 10° E
Meteor 1-21 Rocket 4.3 19:18:05 10° NNW 19:23:41 89° WSW 19:29:13 10° S
USA 234 4.5 19:20:13 10° E 19:24:29 18° ESE 19:28:44 10° SSE
STARLINK-1205 3.0 19:21:25 10° W 19:24:33 75° N 19:27:41 10° E
STARLINK-1204 3.0 19:21:53 10° W 19:25:01 75° N 19:28:09 10° E
STARLINK-1203 3.8 19:21:07 10° W 19:25:19 79° N 19:29:32 10° E
Resurs 01 Rocket 2.6 19:22:22 10° SE 19:26:12 30° ENE 19:30:04 10° N
Cosmos 2154 Rocket 4.4 19:20:36 10° N 19:26:45 48° ENE 19:32:51 10° SE
IRIDIUM 114 4.3 19:21:44 10° N 19:26:59 72° E 19:32:11 10° S
MOS 1 4.3 19:21:57 10° SSE 19:27:37 87° ENE 19:33:20 10° NNW
Meteor 1-16 Rocket 4.4 19:24:38 10° SSE 19:29:47 47° E 19:35:07 10° NNE
SeaSat 1 2.8 19:25:21 10° NNE 19:30:18 74° NW 19:35:13 10° SW
STARLINK-1246 3.7 19:26:55 10° W 19:31:05 79° N 19:35:14 10° E
SL-4 R/B 3.2 19:29:21 10° S 19:31:42 17° SE 19:33:43 11° ESE
Cosmos 2315 Rocket 4.3 19:25:28 10° SSW 19:31:48 76° W 19:38:14 10° N
Nadezhda 1 Rocket 4.5 19:26:59 10° SSE 19:32:53 41° E 19:38:46 10° NNE
STARLINK-1201 3.1 19:30:02 10° W 19:33:19 77° N 19:36:24 11° E
Aureole 3 4.1 19:28:32 10° S 19:33:21 84° E 19:39:35 10° NNE
Cosmos 1726 Rocket 4.2 19:31:11 10° SSE 19:35:09 34° E 19:39:11 10° NNE
STARLINK-1224 3.7 19:31:54 10° W 19:36:04 78° N 19:40:13 10° E
IRIDIUM 103 4.3 19:30:55 10° N 19:36:11 84° E 19:41:25 10° S
Cosmos 1340 Rocket 4.1 19:33:49 10° SE 19:36:55 21° E 19:40:00 10° NE
ATLAS 5 CENTAUR R/B 3.1 19:35:52 10° SE 19:38:05 14° ESE 19:40:24 10° E
Cosmos 1825 Rocket 3.5 19:33:57 10° N 19:38:24 76° E 19:42:45 10° SSE
Cosmos 1328 4.0 19:34:29 10° N 19:38:26 55° ENE 19:42:22 10° SSE
CZ-4 R/B 4.4 19:36:25 10° WSW 19:38:32 14° W 19:40:41 10° NW
STARLINK-1225 3.7 19:36:54 10° W 19:41:04 78° N 19:45:05 11° E
Cosmos 1703 3.3 19:39:54 10° N 19:43:51 64° ENE 19:47:48 10° SSE
STARLINK-1230 3.7 19:41:53 10° W 19:46:02 78° N 19:49:52 12° E
Cosmos 1943 Rocket 3.7 19:43:07 10° NW 19:48:05 35° WSW 19:53:04 10° S
Cosmos 614 Rocket 4.5 19:44:39 10° S 19:49:27 38° ESE 19:54:15 10° NE
Cosmos 2369 Rocket 3.3 19:44:44 10° NW 19:50:06 43° WSW 19:55:25 10° S
Abrixas rocket 2.6 19:47:49 10° WSW 19:50:37 39° S 19:52:19 19° ESE
STARLINK-1243 3.7 19:46:51 10° W 19:51:00 78° N 19:54:37 13° E
Cosmos 1758 Rocket 3.8 19:46:50 10° NNW 19:51:11 71° W 19:55:28 10° S
Cosmos 2074 Rocket 4.1 19:44:57 10° NNW 19:51:16 83° W 19:57:33 10° S
COSMOS 2455 3.1 19:45:48 10° NW 19:51:46 56° NE 19:56:39 15° ESE
Cosmos 1300 4.3 19:50:48 16° ESE 19:51:47 17° E 19:54:19 10° NE
SPOT 3 Rocket 3.6 19:47:26 10° SSE 19:52:40 84° ENE 19:57:54 10° NNW
SL-24 R/B 4.1 19:48:33 10° NNE 19:52:45 51° E 19:56:31 10° S
Cosmos 1437 3.5 19:50:41 10° NNW 19:53:39 50° W 19:56:35 10° S
Cosmos 921 Rocket 3.4 19:50:18 10° N 19:54:18 42° ENE 19:57:12 17° SE
CZ-2C R/B 3.8 19:49:57 10° NNE 19:54:38 56° E 19:59:12 10° S
STARLINK-1236 3.7 19:51:52 10° W 19:56:01 79° N 19:59:26 15° E
Cosmos 1953 Rocket 3.6 19:54:16 10° N 19:58:45 83° ENE 20:03:15 10° SSE
Cosmos 1953 2.9 19:55:11 10° SSW 19:59:07 60° WNW 20:03:06 10° N
Cosmos 407 Rocket 3.9 19:56:02 10° S 20:00:47 39° ESE 20:05:32 10° NE
Cosmos 2228 2.9 19:57:08 10° S 20:01:23 69° E 20:05:44 10° NNE
Cosmos 1606 Rocket 3.5 19:59:35 10° S 20:04:00 77° E 20:08:30 10° NNE
Cosmos 1908 3.2 20:00:45 10° S 20:04:33 61° E 20:08:25 10° NNE
STARLINK-1269 3.7 20:01:51 10° W 20:06:00 80° N 20:09:00 18° E
Cosmos 1610 Rocket 4.5 20:01:05 10° N 20:07:20 87° E 20:13:29 10° S
ATLAS CENTAUR R/B 3.6 20:05:26 10° NNW 20:08:06 17° NNE 20:10:40 10° NE
ERBS 3.2 20:05:05 10° WNW 20:08:20 42° NNE 20:10:29 18° ENE
Cosmos 1818 3.5 20:02:59 10° SSW 20:08:21 63° SE 20:13:45 10° NE
ERS-1 Rocket 4.2 20:07:39 17° E 20:10:12 26° ENE 20:14:19 10° N
STARLINK-1200 3.6 20:06:50 10° W 20:10:59 80° N 20:13:46 20° E
SL-08 RB Rocket 4.4 20:08:18 10° S 20:12:46 54° W 20:17:19 10° NNW
Meteor 1-11 4.3 20:07:40 10° NNW 20:13:29 89° W 20:19:12 10° S
STARLINK-1192 3.6 20:11:48 10° W 20:15:57 81° N 20:18:33 22° E
Cosmos 1461 3.1 20:12:26 10° NW 20:16:57 86° SW 20:19:51 23° SE
SPOT 1/Viking Rocket 4.3 20:14:30 21° ESE 20:17:21 36° ENE 20:22:06 10° N
Cosmos 1943 3.2 20:12:16 10° SSW 20:17:57 86° WNW 20:23:42 10° NNE
MetOp-B 4.3 20:15:08 18° SE 20:18:59 59° ENE 20:24:16 10° N
CZ-2C R/B 4.4 20:15:58 10° SSW 20:20:25 35° W 20:24:47 10° NNW
STARLINK-1244 3.6 20:16:47 10° W 20:20:57 83° N 20:23:20 25° E
STARLINK-1138 3.6 20:21:45 10° W 20:25:55 84° N 20:28:06 27° E
SAR-Lupe-2 4.1 20:22:33 10° NNE 20:25:55 37° E 20:26:39 33° SE
H-2A R/B 3.9 20:25:25 10° SSW 20:29:53 29° W 20:34:18 10° NNW
CZ-4C R/B 3.8 20:24:44 10° NW 20:30:38 37° NNE 20:37:07 12° E
STARLINK-1143 3.6 20:26:43 10° W 20:30:52 85° N 20:32:52 30° E
STARLINK-1228 2.8 20:28:22 10° W 20:31:12 55° SSW 20:31:34 49° SSE
Cosmos 1697 Rocket 4.1 20:27:34 10° NNW 20:32:19 26° NE 20:35:27 17° E
Cosmos 1076 Rocket 4.1 20:29:53 10° N 20:33:53 38° ENE 20:35:03 31° ESE
STARLINK-1241 3.6 20:31:44 10° W 20:35:54 87° NNE 20:37:40 33° E
Resurs 1-3 4.5 20:33:15 10° S 20:37:30 48° W 20:41:46 10° NNW
CZ-2C R/B 2.5 20:32:19 10° NNE 20:37:32 83° ESE 20:42:43 10° SSW
SPOT 5 3.6 20:36:47 26° E 20:37:53 30° ENE 20:41:40 10° N
Cosmos 1726 4.1 20:35:19 10° SW 20:38:40 30° WNW 20:42:02 10° N
STARLINK-1239 3.5 20:36:42 10° WNW 20:40:52 89° NNE 20:42:28 37° ESE
NOSS 3-4 (A) 4.3 20:34:07 10° NW 20:40:52 56° SW 20:46:22 19° SSE
NOSS 3-4 (C) 4.3 20:34:13 10° NW 20:40:59 57° SW 20:46:27 19° SSE
Cosmos 2341 Rocket 4.0 20:35:16 10° N 20:41:42 87° E 20:46:40 18° S
Iridium 2 4.1 20:42:00 40° ESE 20:42:22 42° E 20:46:00 10° NNE
STARLINK-1233 2.9 20:39:56 10° WNW 20:43:03 62° SSW 20:43:20 58° S
Cosmos 2058 3.3 20:39:31 10° N 20:43:29 44° ENE 20:44:18 38° ESE
STARLINK-1212 2.9 20:40:24 10° WNW 20:43:30 62° SSW 20:43:45 59° S
STARLINK-1105 2.9 20:40:50 10° WNW 20:43:57 61° SSW 20:44:12 59° S
STARLINK-1206 2.9 20:41:20 10° WNW 20:44:26 61° SSW 20:44:37 59° S
Aureole 1 Rocket 4.0 20:37:18 10° SSW 20:44:49 87° ESE 20:50:39 10° NNE
STARLINK-1247 2.9 20:41:47 10° WNW 20:44:53 61° SSW 20:45:03 59° S
STARLINK-1227 2.9 20:42:11 10° WNW 20:45:19 61° SSW 20:45:29 59° S
STARLINK-67 3.9 20:43:13 10° W 20:45:06 28° SW 20:45:06 28° SW
STARLINK-1218 2.9 20:42:42 10° WNW 20:45:47 60° SSW 20:45:55 59° S
STARLINK-1240 3.5 20:41:42 10° WNW 20:45:51 89° SSW 20:47:15 41° ESE
STARLINK-1226 2.9 20:43:08 10° WNW 20:46:13 60° SSW 20:46:21 59° S
STARLINK-1254 2.9 20:43:32 10° WNW 20:46:39 60° SSW 20:46:47 59° S
STARLINK-1215 2.9 20:44:02 10° WNW 20:47:07 59° SSW 20:47:13 59° SSW
STARLINK-1231 3.0 20:44:29 10° WNW 20:47:35 59° SSW 20:47:39 58° SSW
Cosmos 1763 Rocket 4.1 20:42:46 10° NNW 20:47:45 43° NE 20:49:35 31° ESE
STARLINK-1232 3.0 20:45:24 10° WNW 20:48:29 58° SSW 20:48:31 58° SSW
STARLINK-1217 3.0 20:45:50 10° WNW 20:48:56 58° SSW 20:48:57 58° SSW
STARLINK-1208 3.0 20:46:14 10° WNW 20:49:21 58° SSW 20:49:23 58° SSW
STARLINK-1229 3.0 20:46:43 10° WNW 20:49:48 57° SSW 20:49:48 57° SSW
STARLINK-1234 3.3 20:47:03 10° W 20:49:52 46° SSW 20:49:52 46° SSW
STARLINK-1271 3.0 20:47:11 10° WNW 20:50:15 57° SSW 20:50:15 57° SSW
STARLINK-1270 3.1 20:47:39 10° WNW 20:50:41 56° SSW 20:50:41 56° SSW
STARLINK-1216 3.5 20:46:41 10° WNW 20:50:51 87° S 20:52:03 46° ESE
STARLINK-1154 3.1 20:48:05 10° WNW 20:51:07 56° SSW 20:51:07 56° SSW
STARLINK-1197 3.1 20:49:00 10° WNW 20:51:59 55° SSW 20:51:59 55° SSW
Cosmos 1408 4.0 20:49:21 10° NNE 20:52:05 24° ENE 20:52:05 24° ENE
STARLINK-1189 3.1 20:49:27 10° W 20:52:25 55° SSW 20:52:25 55° SSW
STARLINK-1209 3.6 20:49:49 10° W 20:52:23 40° SW 20:52:23 40° SW
STARLINK-1198 3.1 20:49:54 10° W 20:52:50 54° SW 20:52:50 54° SW
STARLINK-1188 3.2 20:50:21 10° W 20:53:17 54° SW 20:53:17 54° SW
STARLINK-1235 3.4 20:51:00 10° W 20:53:55 46° SW 20:53:55 46° SW
DMSP B5D2-2 4.4 20:48:52 10° N 20:54:04 66° WNW 20:59:13 10° SSW
STARLINK-1187 3.3 20:51:25 10° W 20:54:22 50° SW 20:54:22 50° SW
STARLINK-1199 3.2 20:52:17 10° W 20:55:12 52° SW 20:55:12 52° SW
RESURS DK-1 3.6 20:51:51 10° NNW 20:55:31 29° NE 20:56:27 26° ENE
STARLINK-1237 3.5 20:51:39 10° WNW 20:55:49 85° SSW 20:56:48 51° ESE
STARLINK-1191 3.3 20:52:45 10° W 20:55:38 52° SW 20:55:38 52° SW
Terra 2.6 20:55:01 31° E 20:56:04 35° ENE 21:00:23 10° N
STARLINK-1210 3.3 20:53:11 10° W 20:56:04 51° SW 20:56:04 51° SW
STARLINK-1221 3.3 20:53:39 10° W 20:56:30 51° SW 20:56:30 51° SW
Cosmos 1174 4.1 20:52:55 10° NW 20:56:45 61° NE 20:57:56 44° ESE
STARLINK-1219 3.3 20:54:05 10° W 20:56:56 51° SW 20:56:56 51° SW
STARLINK-1222 3.4 20:54:33 10° W 20:57:22 50° SW 20:57:22 50° SW
STARLINK-1211 3.4 20:55:01 10° W 20:57:48 49° SW 20:57:48 49° SW
STARLINK-1214 3.4 20:55:27 10° W 20:58:14 49° SW 20:58:14 49° SW
STARLINK-1245 3.4 20:55:56 10° W 20:58:39 48° SW 20:58:39 48° SW
Cosmos 2218 Rocket 3.9 20:53:00 10° N 20:59:13 76° E 21:02:26 31° SSE
STARLINK-1238 3.4 20:56:20 10° W 20:59:06 48° SW 20:59:06 48° SW
Cosmos 192 4.3 20:54:36 10° NNW 20:59:34 69° ENE 21:01:06 43° SE
Cosmos 2058 Rocket 3.6 20:55:07 10° SSW 20:59:34 60° WNW 21:04:04 10° N
STARLINK-1205 3.5 20:57:16 10° W 20:59:56 46° SW 20:59:56 46° SW
MOS 1 Rocket 4.1 20:55:04 10° N 21:00:20 64° WNW 21:05:42 10° SSW
Cosmos 1980 Rocket 3.7 20:55:58 10° NNW 21:00:33 25° NE 21:03:11 18° ENE
STARLINK-1202 3.5 20:56:37 10° WNW 21:00:47 82° SSW 21:01:34 57° ESE
STARLINK-1204 3.5 20:57:45 10° W 21:00:23 46° SW 21:00:23 46° SW
Cosmos 1892 2.9 20:57:53 10° N 21:01:43 52° ENE 21:01:53 52° E
Cosmos 1455 4.2 21:03:40 16° NE 21:03:40 16° NE 21:05:00 10° NE
Resurs 01 Rocket 2.8 20:59:15 15° SSW 21:02:36 39° W 21:06:46 10° NNW
Cosmos 540 Rocket 4.5 20:58:20 10° NNW 21:03:00 32° NE 21:04:25 28° E
STARLINK-1203 3.5 21:01:00 10° WNW 21:05:12 77° SSW 21:05:50 61° SE
Okean 3 Rocket 4.4 21:04:03 10° N 21:08:06 34° ENE 21:08:14 34° ENE
USA 234 3.3 21:02:07 10° ENE 21:08:33 55° SE 21:14:56 10° SW
Cosmos 1656 3.9 21:03:09 10° NNW 21:08:47 57° NE 21:10:37 39° ESE
STARLINK-1201 3.8 21:06:21 10° W 21:08:57 42° WSW 21:08:57 42° WSW
Dummy Sat-02 4.5 21:09:26 74° ESE 21:09:31 74° E 21:13:18 10° N
Iridium 4 Rocket 2.8 21:05:48 10° N 21:10:06 73° E 21:10:42 61° SE
CARTOSAT-1 3.6 21:10:07 54° ESE 21:10:41 60° ENE 21:14:59 10° N
SL-4 R/B 2.8 21:07:22 10° WSW 21:09:22 31° SW 21:09:22 31° SW
STARLINK-1246 3.5 21:06:35 10° WNW 21:10:44 77° SSW 21:11:09 68° SE
ATLAS 2AS CENTAUR R/B 3.9 21:06:07 10° NW 21:12:54 37° WSW 21:17:26 18° S
Cosmos 1190 Rocket 4.2 21:07:37 10° SSW 21:12:55 72° WNW 21:18:14 10° NNE
Cosmos 1340 Rocket 4.0 21:09:14 10° SW 21:13:07 43° WNW 21:17:00 10° N
Cosmos 1140 Rocket 3.5 21:08:46 10° SSW 21:13:58 78° WNW 21:19:10 10° NNE
Spot 2 Rocket 3.9 21:11:43 29° S 21:14:18 62° WSW 21:19:24 10° NNW
STARLINK-1224 3.5 21:11:34 10° WNW 21:15:42 74° SSW 21:15:55 72° S
Cosmos 2181 Rocket 3.9 21:12:15 21° S 21:16:37 86° E 21:22:50 10° N
Cosmos 1825 3.4 21:13:44 10° N 21:16:32 30° NE 21:16:32 30° NE
SL-8 Rocket 4.2 21:13:23 10° NNW 21:19:41 71° W 21:23:20 27° S
Cosmos 1766 Rocket 4.3 21:15:52 10° N 21:20:00 37° ENE 21:20:00 37° ENE
STARLINK-1225 3.5 21:16:34 10° WNW 21:20:42 71° SSW 21:20:43 71° SSW
ATLAS 5 CENTAUR R/B 1.4 21:17:30 10° SW 21:21:46 83° SE 21:26:39 10° NE
Cosmos 864 Rocket 4.5 21:16:56 10° NNW 21:23:13 83° W 21:25:58 36° S
Cosmos 841 Rocket 3.9 21:18:05 10° NNW 21:23:13 48° ENE 21:24:13 42° E
SL-24 R/B - RUBIN 2 4.3 21:19:03 10° SW 21:24:50 86° NW 21:31:21 10° NE
STARLINK-1230 3.6 21:21:32 10° WNW 21:25:30 67° SW 21:25:30 67° SW
Cosmos 1300 3.5 21:25:42 32° SW 21:27:05 49° WNW 21:30:50 10° N
Cosmos 1570 Rocket 4.2 21:23:33 10° NNW 21:28:54 61° ENE 21:29:51 52° ESE
MINOTAUR IV R/B 4.5 21:28:24 44° SSW 21:29:48 88° WNW 21:34:21 10° NNE
IGS 5A 4.0 21:29:44 46° SW 21:30:32 54° W 21:34:39 10° NNW
STARLINK-1243 3.8 21:26:29 10° WNW 21:30:16 62° SW 21:30:16 62° SW
Cosmos 2082 Rocket 4.4 21:33:29 10° ENE 21:33:29 10° ENE 21:33:39 10° ENE
Cosmos 2366 rocket 4.1 21:25:12 10° NNW 21:31:20 72° W 21:34:06 34° S
Meteor 2-12 Rocket 4.4 21:25:25 10° NNW 21:31:34 86° WSW 21:33:42 43° S
Mayak 0.8 21:29:12 10° NE 21:30:35 17° NE 21:30:35 17° NE
Cosmos 468 Rocket 3.9 21:27:36 10° NNW 21:32:49 80° WSW 21:33:48 58° S
Cosmos 1812 Rocket 3.5 21:33:49 70° SSW 21:34:17 83° W 21:38:39 10° N
STARLINK-1236 4.0 21:31:30 10° WNW 21:35:04 56° WSW 21:35:04 56° WSW
COSMOS 2455 3.8 21:32:02 10° NW 21:37:33 38° WSW 21:39:49 28° SSW
ASTEX 1 4.0 21:39:12 41° ENE 21:39:12 41° ENE 21:43:46 10° N
Cosmos 676 Rocket 4.3 21:36:26 12° SW 21:41:15 68° WNW 21:46:31 10° NNE
Cosmos 1356 Rocket 4.3 21:43:19 40° NE 21:43:19 40° NE 21:46:19 10° NNE
COSMOS 2406 3.9 21:45:31 38° E 21:45:31 38° E 21:49:42 10° NE
Nadezhda 3 Rocket 4.1 21:43:48 50° ESE 21:44:33 53° E 21:50:37 10° NNE
ERBS 3.9 21:41:26 10° WNW 21:43:27 32° WNW 21:43:27 32° WNW
STARLINK-1269 4.4 21:41:28 10° WNW 21:44:39 45° WSW 21:44:39 45° WSW
Cosmos 1833 Rocket 4.2 21:47:50 22° ENE 21:47:50 22° ENE 21:50:20 10° NE
ATLAS CENTAUR R/B 2.2 21:44:12 10° NW 21:47:36 40° NNE 21:47:36 40° NNE
ERS-1 Rocket 3.3 21:47:39 49° SSW 21:48:41 59° WSW 21:53:40 10° NNW
Meteor 2-1 Rocket 4.4 21:53:33 42° SSW 21:55:42 78° WNW 22:01:41 10° N
SPOT 1/Viking Rocket 4.5 21:55:08 34° SW 21:56:43 42° W 22:01:42 10° NNW
Cosmos 1408 Rocket 4.2 21:58:56 10° N 22:02:35 50° NNE 22:02:35 50° NNE
Cosmos 2369 3.5 21:59:37 10° NNW 22:05:20 80° ENE 22:05:45 74° ESE
Cosmos 2208 Rocket 3.8 22:00:51 10° NNW 22:06:04 86° WSW 22:06:09 85° SSW
Cosmos 1741 Rocket 3.9 22:07:29 84° E 22:07:29 84° E 22:12:48 10° NNE
Cosmos 2151 3.6 22:05:13 10° NNW 22:08:48 53° WNW 22:08:48 53° WNW
Cosmos 2239 Rocket 4.3 22:04:12 10° N 22:10:29 87° E 22:11:22 68° SSE
Cosmos 489 Rocket 4.5 22:05:53 10° NNW 22:12:03 69° WSW 22:13:00 59° SSW
Meteor 2-10 Rocket 3.4 22:12:36 89° E 22:12:36 89° E 22:18:03 10° NNE
Cosmos 1821 Rocket 4.0 22:07:01 10° NNW 22:13:24 81° W 22:14:33 62° S
SPOT 5 3.7 22:16:00 37° W 22:16:00 37° W 22:19:58 10° NNW
Cosmos 1697 Rocket 2.5 22:11:17 10° NNW 22:17:00 86° WSW 22:17:11 83° S
CZ-4C R/B 2.9 22:13:22 10° NW 22:20:14 74° NE 22:22:18 51° ESE
Cosmos 1934 Rocket 3.8 22:15:34 10° N 22:21:54 77° ENE 22:22:23 73° ESE
Meteor 2-3 Rocket 3.6 22:20:53 10° NNW 22:26:42 85° ENE 22:26:44 85° E
SL-16 R/B 3.4 22:26:10 10° NNW 22:31:18 33° NE 22:32:20 31° ENE
Cosmos 2221 4.3 22:33:51 25° NE 22:33:51 25° NE 22:35:54 10° NNE
Cosmos 1605 Rocket 4.0 22:26:19 10° N 22:32:26 63° ENE 22:32:34 63° E
Cosmos-2242 4.0 22:33:51 45° NW 22:33:51 45° NW 22:37:26 10° N
Cosmos 1814 Rocket 4.3 22:28:03 10° NNW 22:33:05 62° W 22:33:05 62° W
RESURS DK-1 3.9 22:29:45 10° NW 22:32:20 32° WNW 22:32:20 32° WNW
Terra 2.9 22:33:54 37° W 22:33:54 37° W 22:38:14 10° NNW
Cosmos 2360 Rocket 4.1 22:32:53 10° NNW 22:37:13 22° NE 22:39:34 17° ENE
Cosmos 1455 4.0 22:38:33 30° NW 22:38:33 30° NW 22:41:04 10° N
Cosmos 2322 Rocket 3.4 22:36:05 10° NNW 22:41:10 33° NE 22:42:08 31° ENE
Cosmos 540 Rocket 4.1 22:39:50 10° NNW 22:44:14 47° W 22:44:14 47° W
Cosmos 1980 Rocket 2.2 22:39:40 10° NNW 22:44:56 78° NNW 22:44:56 78° NNW
ALOS 2 3.9 22:51:07 36° NNE 22:51:07 36° NNE 22:54:03 10° N
USA 234 3.3 22:45:14 10° ENE 22:51:47 75° NNW 22:58:19 10° WSW
ATLAS 5 CENTAUR R/B 3.5 23:02:54 10° W 23:06:58 31° NNW 23:11:34 10° NE
Cosmos 2278 4.2 23:02:46 10° NW 23:07:28 50° W 23:07:28 50° W
Mayak 0.4 23:04:25 10° N 23:07:09 33° NNW 23:07:09 33° NNW
BREEZE M DEB (TANK) 4.4 23:03:16 10° WSW 23:08:53 77° S 23:32:11 10° E
Cosmos 2082 Rocket 2.7 23:15:18 51° NE 23:15:18 51° NE 23:19:31 10° NNE
Cosmos 2344 4.3 23:05:52 10° NW 23:15:09 78° SW 23:18:39 52° SSE
Meteor 1-27 4.4 23:19:20 70° NW 23:19:20 70° NW 23:24:48 10° N
ATLAS CENTAUR R/B 4.1 23:23:23 10° WNW 23:23:46 12° WNW 23:23:46 12° WNW
COSMOS 2406 4.1 23:27:30 39° W 23:28:40 44° NW 23:34:09 10° NNE
Cosmos 1833 Rocket 3.0 23:29:28 62° NW 23:29:28 62° NW 23:34:48 10° NNE
Cosmos 2219 Rocket 4.2 23:32:42 10° NNW 23:37:05 23° NE 23:40:10 15° ENE
Cosmos 1607 4.3 23:48:19 53° ENE 23:48:19 53° ENE 23:53:09 10° NE
Cosmos 1459 Rocket 4.0 23:41:41 10° N 23:47:45 80° NNE 23:47:45 80° NNE
Cosmos 1727 Rocket 4.0 23:51:23 76° NW 23:51:23 76° NW 23:57:26 10° N
